Powrót do katalogu

COSMOS 2251 DEB

AktywnyLEO
NORAD 35033·DEBRIS·🇷🇺 Russia

Wystrzelony Jun 16, 1993 z Plesetsk Cosmodrome

Loading…

Następne Przeloty (najbliższe 24 godziny)

TLE

ŚwieżeSource: Space-Track

Epoka: Sep 13, 2026, 02:01 UTC

1 35033U 93036AGW 26256.08415273  .00001368  00000-0  34411-3 0  9990
2 35033  74.0275  19.7355 0013529  57.0348 303.2112 14.52137763699081

Śledź COSMOS 2251 DEB w czasie rzeczywistym z AllMySat

Download on the App Store